Regional Weather Roundup
Issued by NWS

Home | Current Version | Previous Version | Text Only | Print | Product List | Glossary Off
Versions: 1 2 3 4 5 6 7 8 9 10 11 12 13 14 15 16 17 18 19 20 21 22 23 24 25 26 27 28 29 30 31 32 33 34 35 36 37 38 39 40 41 42 43 44 45 46 47 48 49 50

000
ASUS43 KOAX 240110
RWRNE

WEATHER ROUNDUP FOR NEBRASKA
NATIONAL WEATHER SERVICE OMAHA NE
700 PM CST FRI FEB 23 2018

NOTES: SATELLITE DATA IS BEING USED TO AUGMENT CLOUD COVER ABOVE
       12000 FEET.
       "FAIR" INDICATES FEW OR NO CLOUDS BELOW 12,000 FEET WITH NO
       SIGNIFICANT WEATHER AND/OR OBSTRUCTIONS TO VISIBILITY.


NEZ001>004-019>022-054>056-240200-
NEBRASKA PANHANDLE

CITY           SKY/WX    TMP DP  RH WIND       PRES   REMARKS
SCOTTSBLUFF    PTCLDY    18  12  77 E10       30.03F WCI   6
ALLIANCE       PTCLDY    15  11  83 E9        30.04F WCI   3
CHADRON        PTCLDY     8   3  80 CALM      30.08F
GORDON         FAIR      11   6  79 CALM      30.08S
KIMBALL        CLOUDY    22  17  80 E9        29.98S WCI  12
SIDNEY         PTCLDY    22  16  78 E8        30.02S WCI  12
$$

NEZ057>060-069>072-079>082-240200-
SOUTHWEST NEBRASKA

CITY           SKY/WX    TMP DP  RH WIND       PRES   REMARKS
NORTH PLATTE   CLEAR     20  14  77 NE6       30.14S WCI  12
IMPERIAL       CLEAR     24  20  84 NE7       30.07F WCI  16
LEXINGTON      CLOUDY    26  22  85 E9        30.17F WCI  17
MCCOOK         PTCLDY    30  24  78 NE13G21   30.11S WCI  20
OGALLALA       CLEAR     24  18  78 E7        30.09S WCI  15
$$

NEZ005>010-023>029-035>040-094-240200-
NORTH CENTRAL NEBRASKA

CITY           SKY/WX    TMP DP  RH WIND       PRES   REMARKS
VALENTINE      MOCLDY    17  10  74 E3        30.17F
AINSWORTH      PTCLDY    14  11  90 E3        30.18S
BROKEN BOW     PTCLDY    12   8  84 NE5       30.17S WCI   4
O`NEILL        MOCLDY    13  12  96 CALM      30.23F
ORD            CLEAR     20  16  84 CALM      30.20S
THEDFORD         N/A     17  13  83 E5        30.15F WCI  10
$$

NEZ041-046>049-061>064-073>077-083>087-240200-
SOUTH CENTRAL NEBRASKA

CITY           SKY/WX    TMP DP  RH WIND       PRES   REMARKS
GRAND ISLAND   CLOUDY    25  20  81 NE8       30.21F WCI  16
AURORA         MOCLDY    24  21  89 NE5       30.22F WCI  18
HASTINGS       CLOUDY    25  20  81 E10       30.19  WCI  15
HEBRON         CLOUDY    31  26  82 NE7       30.22S WCI  24
HOLDREGE       CLOUDY    25  23  91 NE14      30.16F WCI  13
KEARNEY        CLOUDY    24  21  88 NE10      30.19F WCI  14
YORK           MOCLDY    25  25 100 NE8       30.24S WCI  16
$$

NEZ011>018-030>034-042>045-240200-
NORTHEAST NEBRASKA

CITY           SKY/WX    TMP DP  RH WIND       PRES   REMARKS
NORFOLK        CLEAR     19  16  88 NE8       30.24S WCI   9
ALBION         CLEAR     20  17  86 CALM      30.23F
BLAIR          MOCLDY    24  21  87 N10       30.25S WCI  13
COLUMBUS       CLEAR     23  19  85 N3        30.26R
FREMONT        CLOUDY    23  19  87 N7        30.28R WCI  14
TEKAMAH        CLOUDY    22  19  89 N12       30.29S WCI  10
WAYNE          CLEAR     16  15  97 N7        30.27F WCI   6
$$

NEZ050>053-065>068-078-088>093-240200-
SOUTHEAST NEBRASKA

CITY           SKY/WX    TMP DP  RH WIND       PRES   REMARKS
LINCOLN        MOCLDY    25  21  85 N12       30.26F WCI  14
OMAHA EPPLEY   CLOUDY    25  21  85 N7        30.29R WCI  17
BEATRICE       MOCLDY    30  26  88 NE7       30.23R WCI  23
FALLS CITY     CLOUDY    33  27  78 NE3       30.25R
NEBRASKA CITY  CLOUDY    30  28  95 N9        30.24F WCI  21
PLATTSMOUTH    MOCLDY    25  22  89 N9        30.24F WCI  15
$$

NEZ044-045-051>053-067-240200-
OMAHA AREA

CITY           SKY/WX    TMP DP  RH WIND       PRES   REMARKS
OMAHA EPPLEY   CLOUDY    25  21  85 N7        30.29R WCI  17
BLAIR          MOCLDY    24  21  87 N10       30.25S WCI  13
FREMONT        CLOUDY    23  19  87 N7        30.28R WCI  14
MILLARD        CLOUDY    27  21  80 NE3       30.28S
OFFUTT AFB     CLOUDY    25  21  83 N7        30.27R WCI  17
PLATTSMOUTH    MOCLDY    25  22  89 N9        30.24F WCI  15
WAHOO          FAIR      23  20  87 N7        30.27R WCI  15
$$




USA.gov is the U.S. government's official web portal to all federal, state and local government web resources and services.